SBI7520 VNKT-UTAA

Flight info

Callsign SBI7520
Flight time 4h 13m
Altitude 36000
Route VNKT N0440F360 DARK1G DARKE NARAN L626 HW W85 SP M890 SULOM L509 TAPIS P173 DAVET B475 NINOP A125 KEMOR KEM29A GUDRA CI29L FI29L RW29L UTAA
Aircraft B738/M-SDGIWZ/S

Departure

Time 2026-04-11 06:22
Airport Tribhuvan International Airport (VNKT)

Arrival

Time 2026-04-11 10:35
Airport Ashgabat International Airport (UTAA)
Time Latitude Longitude Altitude Speed Heading
2026-04-11 06:09 27.70152 85.35915 4399 ft 0 kts 289°
2026-04-11 06:17 27.70152 85.35918 4399 ft 1 kts 289°
2026-04-11 06:17 27.70146 85.35935 4399 ft 3 kts 290°
2026-04-11 06:18 27.70136 85.35966 4399 ft 5 kts 290°
2026-04-11 06:18 27.70117 85.35996 4399 ft 5 kts 347°
2026-04-11 06:18 27.70084 85.35989 4399 ft 2 kts 22°
2026-04-11 06:18 27.70102 85.35998 4399 ft 9 kts 22°
2026-04-11 06:19 27.70215 85.36050 4399 ft 24 kts 22°
2026-04-11 06:19 27.70390 85.36133 4399 ft 27 kts 21°
2026-04-11 06:19 27.70534 85.36198 4399 ft 11 kts 28°
2026-04-11 06:19 27.70565 85.36230 4399 ft 12 kts 58°
2026-04-11 06:20 27.70642 85.36359 4399 ft 25 kts 28°
2026-04-11 06:20 27.70796 85.36435 4399 ft 22 kts 27°
2026-04-11 06:20 27.70894 85.36530 4399 ft 16 kts 345°
2026-04-11 06:20 27.70880 85.36472 4399 ft 13 kts 202°
2026-04-11 06:21 27.70572 85.36332 4399 ft 81 kts 200°
2026-04-11 06:21 27.69862 85.36011 4399 ft 136 kts 202°
2026-04-11 06:21 27.68833 85.35541 4401 ft 180 kts 203°
2026-04-11 06:21 27.67614 85.34978 4657 ft 197 kts 202°
2026-04-11 06:22 27.66324 85.34347 5078 ft 206 kts 213°
2026-04-11 06:22 27.65432 85.33160 5706 ft 200 kts 246°
2026-04-11 06:22 27.64962 85.31636 5987 ft 215 kts 260°
2026-04-11 06:22 27.65071 85.29923 6162 ft 225 kts 291°
2026-04-11 06:23 27.65876 85.28461 6596 ft 225 kts 314°
2026-04-11 06:23 27.67049 85.27275 6984 ft 228 kts 325°
2026-04-11 06:23 27.68521 85.26628 7326 ft 231 kts 354°
2026-04-11 06:23 27.70100 85.26699 7799 ft 231 kts
2026-04-11 06:24 27.71679 85.27309 7903 ft 253 kts 33°
2026-04-11 06:24 27.72929 85.28736 8368 ft 259 kts 54°
2026-04-11 06:24 27.73793 85.30550 8829 ft 267 kts 64°
2026-04-11 06:24 27.74567 85.32447 9553 ft 268 kts 63°
2026-04-11 06:25 27.75346 85.34356 10250 ft 270 kts 68°
2026-04-11 06:25 27.75771 85.36422 10890 ft 274 kts 86°
2026-04-11 06:25 27.75596 85.38554 11542 ft 277 kts 103°
2026-04-11 06:25 27.74930 85.40594 12150 ft 282 kts 118°
2026-04-11 06:26 27.73708 85.42320 12655 ft 287 kts 139°
2026-04-11 06:26 27.72048 85.43557 13211 ft 290 kts 155°
2026-04-11 06:26 27.70122 85.44231 13688 ft 294 kts 168°
2026-04-11 06:26 27.68081 85.44402 14148 ft 299 kts 188°
2026-04-11 06:27 27.66124 85.43642 14618 ft 299 kts 211°
2026-04-11 06:27 27.64402 85.42382 15168 ft 299 kts 219°
2026-04-11 06:27 27.63029 85.40614 15444 ft 303 kts 247°
2026-04-11 06:27 27.62420 85.38387 16142 ft 293 kts 260°
2026-04-11 06:28 27.62129 85.36127 16433 ft 299 kts 274°
2026-04-11 06:28 27.62629 85.33900 16874 ft 292 kts 301°
2026-04-11 06:28 27.63666 85.32000 17554 ft 285 kts 305°
2026-04-11 06:28 27.64813 85.30102 17629 ft 301 kts 306°
2026-04-11 06:29 27.66048 85.28106 17687 ft 316 kts 306°
2026-04-11 06:29 27.67321 85.26053 17735 ft 331 kts 307°
2026-04-11 06:29 27.68690 85.23859 17784 ft 346 kts 307°
2026-04-11 06:29 27.70054 85.21605 17831 ft 360 kts 303°
2026-04-11 06:30 27.71234 85.19048 17882 ft 374 kts 295°
2026-04-11 06:30 27.72259 85.16290 18014 ft 383 kts 295°
2026-04-11 06:30 27.73261 85.13516 18285 ft 389 kts 292°
2026-04-11 06:30 27.74022 85.10549 18550 ft 397 kts 282°
2026-04-11 06:31 27.74144 85.07433 18842 ft 405 kts 268°
2026-04-11 06:31 27.73832 85.04279 19206 ft 407 kts 266°
2026-04-11 06:31 27.73526 85.01062 19345 ft 415 kts 262°
2026-04-11 06:31 27.73256 84.97828 19825 ft 412 kts 261°
2026-04-11 06:32 27.72964 84.94605 20108 ft 416 kts 261°
2026-04-11 06:32 27.72653 84.91386 20499 ft 415 kts 260°
2026-04-11 06:32 27.72343 84.88141 20822 ft 417 kts 260°
2026-04-11 06:32 27.72033 84.84896 21138 ft 418 kts 260°
2026-04-11 06:33 27.71723 84.81649 21500 ft 418 kts 260°
2026-04-11 06:33 27.71407 84.78379 21727 ft 421 kts 260°
2026-04-11 06:33 27.71091 84.75098 22153 ft 419 kts 260°
2026-04-11 06:33 27.70775 84.71839 22356 ft 422 kts 260°
2026-04-11 06:34 27.70457 84.68568 22718 ft 421 kts 260°
2026-04-11 06:34 27.70138 84.65286 23003 ft 422 kts 260°
2026-04-11 06:34 27.69815 84.61979 23263 ft 423 kts 260°
2026-04-11 06:34 27.69496 84.58719 23540 ft 423 kts 260°
2026-04-11 06:35 27.69171 84.55402 23824 ft 423 kts 259°
2026-04-11 06:35 27.68847 84.52103 24072 ft 424 kts 259°
2026-04-11 06:35 27.68528 84.48807 24334 ft 425 kts 261°
2026-04-11 06:35 27.68398 84.45471 24574 ft 429 kts 267°
2026-04-11 06:36 27.68615 84.42099 24805 ft 434 kts 275°
2026-04-11 06:36 27.69289 84.38764 25018 ft 440 kts 283°
2026-04-11 06:36 27.70271 84.35513 25286 ft 441 kts 285°
2026-04-11 06:36 27.71282 84.32247 25493 ft 441 kts 284°
2026-04-11 06:37 27.72259 84.28975 25698 ft 442 kts 284°
2026-04-11 06:37 27.73238 84.25687 25932 ft 442 kts 284°
2026-04-11 06:37 27.74219 84.22424 26118 ft 443 kts 284°
2026-04-11 06:37 27.75204 84.19159 26333 ft 443 kts 284°
2026-04-11 06:38 27.76193 84.15880 26558 ft 443 kts 284°
2026-04-11 06:38 27.77194 84.12556 26697 ft 444 kts 284°
2026-04-11 06:38 27.78180 84.09287 26924 ft 444 kts 284°
2026-04-11 06:38 27.79177 84.05981 27106 ft 444 kts 284°
2026-04-11 06:39 27.80168 84.02689 27302 ft 444 kts 284°
2026-04-11 06:39 27.81155 83.99412 27478 ft 444 kts 284°
2026-04-11 06:39 27.82152 83.96098 27638 ft 444 kts 284°
2026-04-11 06:39 27.83131 83.92839 27792 ft 445 kts 284°
2026-04-11 06:40 27.84130 83.89513 27936 ft 446 kts 284°
2026-04-11 06:40 27.85119 83.86218 28109 ft 445 kts 284°
2026-04-11 06:40 27.86111 83.82912 28305 ft 444 kts 284°
2026-04-11 06:41 27.88096 83.76281 28538 ft 446 kts 284°
2026-04-11 06:41 27.89092 83.72950 28707 ft 446 kts 284°
2026-04-11 06:41 27.90074 83.69663 28840 ft 446 kts 284°
2026-04-11 06:41 27.91068 83.66334 28972 ft 446 kts 284°
2026-04-11 06:42 27.92051 83.63036 29066 ft 447 kts 284°
2026-04-11 06:42 27.93043 83.59705 29224 ft 446 kts 284°
2026-04-11 06:42 27.94032 83.56381 29325 ft 447 kts 284°
2026-04-11 06:43 27.96109 83.49763 29517 ft 449 kts 287°
2026-04-11 06:43 27.97264 83.46514 29781 ft 446 kts 287°
2026-04-11 06:43 27.98407 83.43271 30012 ft 443 kts 287°
2026-04-11 06:43 27.99519 83.40050 30154 ft 442 kts 287°
2026-04-11 06:44 28.00626 83.36831 30368 ft 439 kts 287°
2026-04-11 06:44 28.01728 83.33624 30597 ft 436 kts 286°
2026-04-11 06:44 28.02817 83.30452 30755 ft 435 kts 286°
2026-04-11 06:45 28.05007 83.24040 30969 ft 436 kts 287°
2026-04-11 06:45 28.06102 83.20857 31167 ft 433 kts 287°
2026-04-11 06:45 28.07198 83.17689 31347 ft 432 kts 287°
2026-04-11 06:46 28.09353 83.11396 31550 ft 431 kts 286°
2026-04-11 06:46 28.10426 83.08226 31722 ft 429 kts 286°
2026-04-11 06:46 28.11493 83.05064 31866 ft 428 kts 286°
2026-04-11 06:47 28.13619 82.98799 32083 ft 427 kts 287°
2026-04-11 06:47 28.14689 82.95692 32221 ft 425 kts 287°
2026-04-11 06:47 28.15757 82.92584 32306 ft 425 kts 287°
2026-04-11 06:47 28.16832 82.89441 32409 ft 424 kts 287°
2026-04-11 06:48 28.17883 82.86357 32548 ft 422 kts 287°
2026-04-11 06:48 28.19982 82.80169 32761 ft 420 kts 288°
2026-04-11 06:48 28.21026 82.77087 32893 ft 418 kts 288°
2026-04-11 06:49 28.22071 82.74007 32966 ft 418 kts 288°
2026-04-11 06:49 28.24132 82.67893 33198 ft 415 kts 288°
2026-04-11 06:49 28.25154 82.64836 33299 ft 414 kts 288°
2026-04-11 06:50 28.26156 82.61818 33372 ft 413 kts 288°
2026-04-11 06:50 28.28181 82.55734 33544 ft 412 kts 288°
2026-04-11 06:51 28.30204 82.49689 33718 ft 410 kts 288°
2026-04-11 06:51 28.32231 82.43680 33872 ft 408 kts 288°
2026-04-11 06:52 28.34252 82.37656 34037 ft 407 kts 288°
2026-04-11 06:52 28.36235 82.31685 34178 ft 405 kts 288°
2026-04-11 06:53 28.38207 82.25734 34340 ft 404 kts 288°
2026-04-11 06:53 28.40223 82.19773 34497 ft 403 kts 288°
2026-04-11 06:54 28.42216 82.13831 34643 ft 402 kts 288°
2026-04-11 06:54 28.44157 82.07931 34786 ft 401 kts 287°
2026-04-11 06:55 28.46092 82.02016 34925 ft 400 kts 288°
2026-04-11 06:55 28.48075 81.96093 35066 ft 399 kts 288°
2026-04-11 06:56 28.50025 81.90217 35209 ft 398 kts 288°
2026-04-11 06:56 28.51940 81.84334 35347 ft 397 kts 288°
2026-04-11 06:57 28.53851 81.78488 35471 ft 396 kts 288°
2026-04-11 06:57 28.55766 81.72623 35605 ft 395 kts 288°
2026-04-11 06:58 28.57676 81.66789 35733 ft 394 kts 288°
2026-04-11 06:58 28.59493 81.60987 35859 ft 391 kts 284°
2026-04-11 06:59 28.60973 81.55036 35940 ft 391 kts 284°
2026-04-11 06:59 28.62508 81.49118 35939 ft 392 kts 284°
2026-04-11 07:00 28.64051 81.43142 35939 ft 394 kts 284°
2026-04-11 07:00 28.65568 81.37196 35939 ft 395 kts 284°
2026-04-11 07:01 28.67099 81.31170 35940 ft 397 kts 283°
2026-04-11 07:01 28.68633 81.25114 35940 ft 399 kts 283°
2026-04-11 07:02 28.70167 81.19089 35940 ft 399 kts 284°
2026-04-11 07:02 28.71738 81.13022 35938 ft 398 kts 284°
2026-04-11 07:03 28.73287 81.06987 35939 ft 398 kts 284°
2026-04-11 07:03 28.74818 81.00966 35939 ft 397 kts 284°
2026-04-11 07:04 28.76330 80.94931 35939 ft 397 kts 284°
2026-04-11 07:04 28.77860 80.88887 35939 ft 395 kts 284°
2026-04-11 07:05 28.79388 80.82908 35939 ft 395 kts 284°
2026-04-11 07:05 28.80895 80.76874 35938 ft 396 kts 284°
2026-04-11 07:06 28.82384 80.70874 35939 ft 394 kts 284°
2026-04-11 07:06 28.83876 80.64875 35938 ft 395 kts 284°
2026-04-11 07:07 28.85379 80.58848 35940 ft 396 kts 285°
2026-04-11 07:07 28.86907 80.52852 35939 ft 395 kts 284°
2026-04-11 07:08 28.88424 80.46867 35938 ft 394 kts 284°
2026-04-11 07:08 28.89895 80.40858 35938 ft 395 kts 284°
2026-04-11 07:09 28.91368 80.34819 35941 ft 395 kts 284°
2026-04-11 07:09 28.92857 80.28770 35936 ft 396 kts 284°
2026-04-11 07:10 28.95110 80.19762 35939 ft 394 kts 284°
2026-04-11 07:10 28.96378 80.13680 35939 ft 394 kts 277°
2026-04-11 07:11 28.96991 80.07492 35937 ft 393 kts 276°
2026-04-11 07:11 28.97677 80.01306 35940 ft 394 kts 276°
2026-04-11 07:12 28.98358 79.95109 35938 ft 393 kts 276°
2026-04-11 07:12 28.98987 79.88944 35938 ft 391 kts 276°
2026-04-11 07:13 28.99613 79.82825 35940 ft 392 kts 276°
2026-04-11 07:13 29.00239 79.76638 35907 ft 393 kts 276°
2026-04-11 07:14 29.00865 79.70487 35911 ft 390 kts 276°
2026-04-11 07:14 29.01468 79.64354 35911 ft 389 kts 276°
2026-04-11 07:15 29.02089 79.58214 35915 ft 390 kts 276°
2026-04-11 07:15 29.02777 79.52106 35911 ft 388 kts 280°
2026-04-11 07:16 29.03600 79.49168 35912 ft 392 kts 293°
2026-04-11 07:16 29.04977 79.46458 35919 ft 396 kts 298°
2026-04-11 07:16 29.08355 79.41479 35916 ft 403 kts 310°
2026-04-11 07:17 29.12424 79.37078 35911 ft 402 kts 309°
2026-04-11 07:17 29.16390 79.32600 35908 ft 401 kts 309°
2026-04-11 07:18 29.20363 79.28133 35913 ft 402 kts 309°
2026-04-11 07:18 29.24365 79.23689 35910 ft 402 kts 309°
2026-04-11 07:19 29.28380 79.19276 35911 ft 402 kts 309°
2026-04-11 07:19 29.32358 79.14812 35912 ft 402 kts 309°
2026-04-11 07:20 29.36322 79.10342 35912 ft 400 kts 309°
2026-04-11 07:20 29.40298 79.05907 35912 ft 399 kts 309°
2026-04-11 07:21 29.44270 79.01473 35909 ft 399 kts 309°
2026-04-11 07:21 29.48223 78.97044 35910 ft 399 kts 310°
2026-04-11 07:22 29.52183 78.92623 35912 ft 399 kts 310°
2026-04-11 07:22 29.56111 78.88200 35912 ft 398 kts 309°
2026-04-11 07:23 29.60076 78.83714 35913 ft 399 kts 309°
2026-04-11 07:23 29.63975 78.79258 35912 ft 398 kts 309°
2026-04-11 07:24 29.67892 78.74796 35914 ft 398 kts 309°
2026-04-11 07:24 29.71827 78.70300 35913 ft 399 kts 310°
2026-04-11 07:25 29.75750 78.65839 35913 ft 400 kts 310°
2026-04-11 07:25 29.79710 78.61396 35911 ft 398 kts 310°
2026-04-11 07:26 29.83655 78.56969 35912 ft 398 kts 310°
2026-04-11 07:26 29.87567 78.52486 35911 ft 397 kts 309°
2026-04-11 07:27 29.91475 78.48019 35912 ft 398 kts 310°
2026-04-11 07:27 29.95426 78.43567 35911 ft 397 kts 310°
2026-04-11 07:28 29.99323 78.39085 35913 ft 397 kts 309°
2026-04-11 07:28 30.03232 78.34605 35912 ft 398 kts 309°
2026-04-11 07:29 30.07193 78.30154 35910 ft 398 kts 309°
2026-04-11 07:29 30.11091 78.25654 35911 ft 397 kts 309°
2026-04-11 07:30 30.14306 78.20649 35924 ft 385 kts 292°
2026-04-11 07:30 30.16272 78.14926 35924 ft 382 kts 280°
2026-04-11 07:31 30.16518 78.11906 35943 ft 381 kts 269°
2026-04-11 07:31 30.16395 78.08870 35944 ft 382 kts 266°
2026-04-11 07:31 30.15374 78.02856 35961 ft 385 kts 255°
2026-04-11 07:32 30.13819 77.96958 35964 ft 384 kts 256°
2026-04-11 07:32 30.12351 77.91042 35967 ft 383 kts 256°
2026-04-11 07:33 30.10832 77.85152 35966 ft 384 kts 255°
2026-04-11 07:33 30.09305 77.79260 35965 ft 384 kts 256°
2026-04-11 07:34 30.07805 77.73375 35964 ft 384 kts 256°
2026-04-11 07:34 30.06312 77.67448 35966 ft 383 kts 256°
2026-04-11 07:35 30.04782 77.61588 35965 ft 384 kts 255°
2026-04-11 07:35 30.03618 77.55602 35964 ft 382 kts 267°
2026-04-11 07:36 30.03997 77.49537 35967 ft 383 kts 280°
2026-04-11 07:36 30.05852 77.43807 35967 ft 389 kts 298°
2026-04-11 07:37 30.09136 77.38790 35961 ft 396 kts 310°
2026-04-11 07:37 30.11327 77.36836 35972 ft 407 kts 323°
2026-04-11 07:37 30.13859 77.35305 35967 ft 412 kts 327°
2026-04-11 07:38 30.18926 77.32320 35965 ft 411 kts 324°
2026-04-11 07:38 30.23975 77.29275 35964 ft 411 kts 326°
2026-04-11 07:39 30.29090 77.26305 35966 ft 411 kts 326°
2026-04-11 07:39 30.34167 77.23330 35966 ft 412 kts 326°
2026-04-11 07:40 30.39048 77.19993 35966 ft 401 kts 314°
2026-04-11 07:40 30.42866 77.15431 35967 ft 392 kts 302°
2026-04-11 07:41 30.46105 77.10416 35968 ft 393 kts 302°
2026-04-11 07:41 30.49423 77.05365 35965 ft 392 kts 302°
2026-04-11 07:42 30.52711 77.00379 35965 ft 391 kts 302°
2026-04-11 07:43 30.57645 76.92848 35967 ft 391 kts 302°
2026-04-11 07:43 30.60928 76.87879 35965 ft 391 kts 302°
2026-04-11 07:44 30.64191 76.82860 35966 ft 391 kts 302°
2026-04-11 07:44 30.67361 76.77772 35965 ft 388 kts 298°
2026-04-11 07:45 30.69670 76.72170 35967 ft 383 kts 288°
2026-04-11 07:45 30.71651 76.66470 35966 ft 384 kts 289°
2026-04-11 07:46 30.73674 76.60717 35966 ft 383 kts 289°
2026-04-11 07:46 30.75655 76.54974 35965 ft 383 kts 289°
2026-04-11 07:47 30.77626 76.49242 35965 ft 383 kts 289°
2026-04-11 07:47 30.79584 76.43517 35966 ft 383 kts 289°
2026-04-11 07:48 30.81548 76.37763 35965 ft 383 kts 289°
2026-04-11 07:48 30.83498 76.32037 35965 ft 383 kts 288°
2026-04-11 07:49 30.85459 76.26267 35966 ft 383 kts 288°
2026-04-11 07:49 30.87404 76.20531 35966 ft 383 kts 288°
2026-04-11 07:50 30.89359 76.14753 35966 ft 383 kts 288°
2026-04-11 07:50 30.91300 76.08993 35967 ft 383 kts 288°
2026-04-11 07:51 30.93227 76.03250 35965 ft 384 kts 288°
2026-04-11 07:51 30.95173 75.97460 35966 ft 385 kts 288°
2026-04-11 07:52 30.97109 75.91671 35966 ft 385 kts 288°
2026-04-11 07:52 30.99056 75.85853 35963 ft 387 kts 288°
2026-04-11 07:53 31.01032 75.80014 35966 ft 388 kts 289°
2026-04-11 07:53 31.03020 75.74174 35965 ft 386 kts 289°
2026-04-11 07:54 31.04964 75.68369 35966 ft 386 kts 289°
2026-04-11 07:54 31.06885 75.62534 35963 ft 387 kts 288°
2026-04-11 07:55 31.08821 75.56693 35966 ft 387 kts 289°
2026-04-11 07:55 31.10801 75.50845 35967 ft 387 kts 289°
2026-04-11 07:56 31.12596 75.44965 35967 ft 386 kts 284°
2026-04-11 07:56 31.14019 75.38941 35964 ft 384 kts 284°
2026-04-11 07:57 31.15541 75.32988 35965 ft 386 kts 285°
2026-04-11 07:57 31.17078 75.26983 35966 ft 387 kts 284°
2026-04-11 07:58 31.18601 75.20980 35966 ft 385 kts 284°
2026-04-11 07:58 31.20093 75.14964 35968 ft 386 kts 284°
2026-04-11 07:59 31.21561 75.08964 35963 ft 385 kts 284°
2026-04-11 07:59 31.23054 75.02960 35940 ft 385 kts 285°
2026-04-11 08:00 31.24598 74.96985 35938 ft 385 kts 285°
2026-04-11 08:00 31.26103 74.91033 35938 ft 385 kts 285°
2026-04-11 08:01 31.27612 74.85036 35942 ft 384 kts 285°
2026-04-11 08:01 31.29111 74.79041 35948 ft 386 kts 285°
2026-04-11 08:02 31.30599 74.73048 35955 ft 386 kts 285°
2026-04-11 08:02 31.32103 74.67048 35962 ft 384 kts 285°
2026-04-11 08:03 31.33636 74.61095 35963 ft 385 kts 289°
2026-04-11 08:03 31.34804 74.58275 35964 ft 388 kts 300°
2026-04-11 08:03 31.36470 74.55743 35970 ft 393 kts 307°
2026-04-11 08:04 31.40451 74.51345 35968 ft 401 kts 318°
2026-04-11 08:04 31.44920 74.47433 35967 ft 402 kts 317°
2026-04-11 08:05 31.49283 74.43425 35964 ft 399 kts 316°
2026-04-11 08:05 31.53667 74.39424 35965 ft 400 kts 317°
2026-04-11 08:06 31.58061 74.35509 35968 ft 401 kts 317°
2026-04-11 08:06 31.62510 74.31547 35964 ft 402 kts 317°
2026-04-11 08:07 31.66929 74.27553 35966 ft 399 kts 317°
2026-04-11 08:07 31.71315 74.23600 35968 ft 399 kts 317°
2026-04-11 08:08 31.77884 74.17641 35968 ft 402 kts 317°
2026-04-11 08:08 31.82297 74.13635 35967 ft 398 kts 316°
2026-04-11 08:09 31.86633 74.09604 35968 ft 400 kts 316°
2026-04-11 08:09 31.90980 74.05621 35966 ft 399 kts 317°
2026-04-11 08:10 31.95388 74.01650 35965 ft 400 kts 317°
2026-04-11 08:10 31.99780 73.97667 35967 ft 401 kts 317°
2026-04-11 08:11 32.04173 73.93649 35966 ft 399 kts 316°
2026-04-11 08:11 32.08505 73.89632 35964 ft 398 kts 316°
2026-04-11 08:12 32.12864 73.85617 35968 ft 400 kts 317°
2026-04-11 08:12 32.17293 73.81597 35966 ft 402 kts 317°
2026-04-11 08:13 32.21685 73.77612 35962 ft 399 kts 317°
2026-04-11 08:13 32.26075 73.73601 35965 ft 400 kts 317°
2026-04-11 08:14 32.30452 73.69585 35968 ft 401 kts 316°
2026-04-11 08:14 32.34795 73.65488 35967 ft 399 kts 316°
2026-04-11 08:15 32.39105 73.61450 35968 ft 399 kts 316°
2026-04-11 08:15 32.43456 73.57394 35965 ft 400 kts 316°
2026-04-11 08:16 32.47834 73.53323 35965 ft 400 kts 317°
2026-04-11 08:16 32.52237 73.49329 35967 ft 399 kts 317°
2026-04-11 08:17 32.56623 73.45289 35967 ft 401 kts 316°
2026-04-11 08:17 32.60941 73.41233 35967 ft 399 kts 317°
2026-04-11 08:18 32.65343 73.37178 35975 ft 400 kts 317°
2026-04-11 08:18 32.69700 73.33157 35975 ft 400 kts 316°
2026-04-11 08:19 32.74048 73.29091 35983 ft 399 kts 314°
2026-04-11 08:19 32.77739 73.24296 35986 ft 389 kts 302°
2026-04-11 08:20 32.80727 73.19010 35993 ft 390 kts 300°
2026-04-11 08:20 32.83790 73.13706 35992 ft 388 kts 301°
2026-04-11 08:21 32.86792 73.08401 35993 ft 387 kts 300°
2026-04-11 08:21 32.89728 73.03058 35991 ft 387 kts 300°
2026-04-11 08:22 32.92704 72.97710 35994 ft 387 kts 300°
2026-04-11 08:22 32.95648 72.92433 35992 ft 385 kts 300°
2026-04-11 08:23 32.98601 72.87125 35993 ft 387 kts 300°
2026-04-11 08:23 33.01564 72.81741 35993 ft 389 kts 300°
2026-04-11 08:24 33.04505 72.76338 35993 ft 391 kts 300°
2026-04-11 08:24 33.07465 72.70919 35993 ft 393 kts 301°
2026-04-11 08:25 33.10473 72.65517 35994 ft 393 kts 301°
2026-04-11 08:25 33.13462 72.60076 35992 ft 394 kts 300°
2026-04-11 08:26 33.16441 72.54569 35989 ft 395 kts 300°
2026-04-11 08:26 33.19442 72.49078 35994 ft 395 kts 301°
2026-04-11 08:27 33.22444 72.43636 35994 ft 393 kts 301°
2026-04-11 08:27 33.25440 72.38187 35994 ft 394 kts 300°
2026-04-11 08:28 33.28442 72.32708 35992 ft 395 kts 300°
2026-04-11 08:28 33.31426 72.27222 35991 ft 394 kts 300°
2026-04-11 08:29 33.34386 72.21738 35992 ft 394 kts 300°
2026-04-11 08:29 33.37339 72.16242 35985 ft 394 kts 300°
2026-04-11 08:30 33.40276 72.10729 35980 ft 393 kts 299°
2026-04-11 08:30 33.43223 72.05229 35974 ft 396 kts 300°
2026-04-11 08:31 33.46175 71.99712 35965 ft 394 kts 300°
2026-04-11 08:31 33.49130 71.94223 35966 ft 394 kts 300°
2026-04-11 08:32 33.52043 71.88650 35962 ft 395 kts 296°
2026-04-11 08:32 33.53129 71.85678 35961 ft 391 kts 284°
2026-04-11 08:32 33.53437 71.82446 35974 ft 389 kts 269°
2026-04-11 08:33 33.53075 71.75970 35964 ft 392 kts 268°
2026-04-11 08:33 33.52811 71.69468 35967 ft 392 kts 269°
2026-04-11 08:34 33.52520 71.62975 35965 ft 391 kts 268°
2026-04-11 08:34 33.52158 71.56455 35965 ft 391 kts 267°
2026-04-11 08:35 33.51757 71.49988 35968 ft 390 kts 268°
2026-04-11 08:35 33.51368 71.43510 35964 ft 391 kts 267°
2026-04-11 08:36 33.50980 71.37041 35966 ft 391 kts 268°
2026-04-11 08:36 33.50573 71.30540 35965 ft 391 kts 267°
2026-04-11 08:37 33.50161 71.24071 35965 ft 390 kts 267°
2026-04-11 08:37 33.49771 71.17620 35966 ft 391 kts 266°
2026-04-11 08:38 33.49279 71.11138 35966 ft 390 kts 267°
2026-04-11 08:38 33.49557 71.04748 35967 ft 387 kts 282°
2026-04-11 08:39 33.51483 70.98715 35967 ft 392 kts 296°
2026-04-11 08:39 33.54866 70.93543 35970 ft 399 kts 313°
2026-04-11 08:40 33.58900 70.89095 35965 ft 396 kts 313°
2026-04-11 08:40 33.62845 70.84536 35967 ft 396 kts 312°
2026-04-11 08:41 33.66848 70.79980 35965 ft 396 kts 313°
2026-04-11 08:41 33.70838 70.75494 35966 ft 395 kts 313°
2026-04-11 08:42 33.74818 70.70972 35965 ft 395 kts 313°
2026-04-11 08:43 33.80785 70.64202 35966 ft 396 kts 313°
2026-04-11 08:43 33.84778 70.59695 35965 ft 396 kts 313°
2026-04-11 08:44 33.88794 70.55139 35965 ft 395 kts 313°
2026-04-11 08:44 33.92575 70.50432 35966 ft 391 kts 306°
2026-04-11 08:45 33.95435 70.44966 35968 ft 388 kts 296°
2026-04-11 08:45 33.97973 70.39241 35965 ft 388 kts 297°
2026-04-11 08:46 34.00552 70.33539 35966 ft 388 kts 296°
2026-04-11 08:46 34.03079 70.27808 35965 ft 387 kts 296°
2026-04-11 08:47 34.05608 70.22098 35966 ft 388 kts 296°
2026-04-11 08:47 34.08139 70.16369 35966 ft 388 kts 296°
2026-04-11 08:48 34.10645 70.10634 35966 ft 387 kts 296°
2026-04-11 08:48 34.13168 70.04871 35967 ft 388 kts 296°
2026-04-11 08:49 34.15685 69.99136 35965 ft 387 kts 296°
2026-04-11 08:49 34.18193 69.93423 35966 ft 387 kts 296°
2026-04-11 08:50 34.20684 69.87661 35965 ft 388 kts 295°
2026-04-11 08:50 34.23164 69.81899 35965 ft 387 kts 295°
2026-04-11 08:51 34.25641 69.76135 35967 ft 388 kts 296°
2026-04-11 08:51 34.28115 69.70363 35965 ft 387 kts 295°
2026-04-11 08:52 34.31805 69.61694 35966 ft 387 kts 296°
2026-04-11 08:52 34.34266 69.55955 35965 ft 388 kts 296°
2026-04-11 08:53 34.36758 69.50137 35966 ft 388 kts 296°
2026-04-11 08:53 34.39228 69.44361 35964 ft 387 kts 296°
2026-04-11 08:54 34.41666 69.38600 35967 ft 388 kts 296°
2026-04-11 08:54 34.44147 69.32774 35965 ft 388 kts 295°
2026-04-11 08:55 34.46616 69.26973 35965 ft 388 kts 295°
2026-04-11 08:55 34.49056 69.21175 35966 ft 387 kts 295°
2026-04-11 08:56 34.51569 69.15430 35964 ft 389 kts 299°
2026-04-11 08:56 34.54686 69.10106 35966 ft 390 kts 303°
2026-04-11 08:57 34.57834 69.04781 35966 ft 390 kts 302°
2026-04-11 08:57 34.61008 68.99414 35966 ft 392 kts 303°
2026-04-11 08:58 34.64215 68.94085 35965 ft 393 kts 303°
2026-04-11 08:58 34.67430 68.88736 35966 ft 393 kts 303°
2026-04-11 08:59 34.70609 68.83370 35966 ft 393 kts 303°
2026-04-11 08:59 34.73803 68.77998 35973 ft 392 kts 303°
2026-04-11 09:00 34.76985 68.72665 36003 ft 393 kts 303°
2026-04-11 09:00 34.80185 68.67259 36052 ft 393 kts 303°
2026-04-11 09:01 34.83361 68.61867 36115 ft 392 kts 303°
2026-04-11 09:01 34.86538 68.56509 36164 ft 393 kts 303°
2026-04-11 09:02 34.89723 68.51137 36181 ft 393 kts 303°
2026-04-11 09:02 34.92919 68.45713 36182 ft 393 kts 303°
2026-04-11 09:03 34.96085 68.40308 36182 ft 393 kts 303°
2026-04-11 09:03 34.99255 68.34942 36181 ft 392 kts 303°
2026-04-11 09:04 35.02420 68.29551 36182 ft 393 kts 303°
2026-04-11 09:04 35.05584 68.24123 36182 ft 392 kts 303°
2026-04-11 09:05 35.08673 68.18665 36181 ft 393 kts 302°
2026-04-11 09:05 35.11757 68.13169 36182 ft 392 kts 302°
2026-04-11 09:06 35.14844 68.07710 36182 ft 392 kts 302°
2026-04-11 09:06 35.17955 68.02224 36183 ft 393 kts 302°
2026-04-11 09:07 35.21042 67.96733 36182 ft 393 kts 302°
2026-04-11 09:07 35.24113 67.91256 36182 ft 392 kts 302°
2026-04-11 09:08 35.27183 67.85770 36182 ft 392 kts 302°
2026-04-11 09:08 35.30265 67.80320 36182 ft 392 kts 303°
2026-04-11 09:09 35.33405 67.74886 36182 ft 392 kts 303°
2026-04-11 09:09 35.36544 67.69409 36182 ft 392 kts 303°
2026-04-11 09:10 35.39640 67.63970 36182 ft 393 kts 303°
2026-04-11 09:10 35.42756 67.58474 36181 ft 392 kts 302°
2026-04-11 09:11 35.45840 67.53017 36182 ft 392 kts 303°
2026-04-11 09:11 35.48969 67.47512 36182 ft 392 kts 303°
2026-04-11 09:12 35.52074 67.42039 36183 ft 392 kts 303°
2026-04-11 09:12 35.55152 67.36561 36182 ft 392 kts 303°
2026-04-11 09:13 35.58244 67.31050 36182 ft 392 kts 302°
2026-04-11 09:13 35.61330 67.25549 36182 ft 391 kts 302°
2026-04-11 09:14 35.64403 67.20076 36182 ft 391 kts 302°
2026-04-11 09:14 35.67508 67.14580 36182 ft 392 kts 302°
2026-04-11 09:15 35.70607 67.09073 36154 ft 391 kts 301°
2026-04-11 09:15 35.73653 67.03584 36155 ft 391 kts 301°
2026-04-11 09:16 35.76706 66.98077 36155 ft 391 kts 301°
2026-04-11 09:16 35.79726 66.92670 36155 ft 391 kts 301°
2026-04-11 09:17 35.82838 66.87197 36155 ft 390 kts 301°
2026-04-11 09:17 35.85904 66.81712 36155 ft 391 kts 301°
2026-04-11 09:18 35.88971 66.76208 36153 ft 391 kts 301°
2026-04-11 09:18 35.92055 66.70669 36155 ft 390 kts 301°
2026-04-11 09:19 35.95137 66.65188 36155 ft 391 kts 301°
2026-04-11 09:19 35.98214 66.59675 36154 ft 390 kts 301°
2026-04-11 09:20 36.01268 66.54134 36155 ft 390 kts 301°
2026-04-11 09:20 36.04309 66.48637 36154 ft 390 kts 301°
2026-04-11 09:21 36.07385 66.43117 36156 ft 392 kts 301°
2026-04-11 09:21 36.10455 66.37571 36154 ft 391 kts 301°
2026-04-11 09:22 36.13504 66.32031 36154 ft 390 kts 300°
2026-04-11 09:22 36.16538 66.26487 36155 ft 388 kts 300°
2026-04-11 09:23 36.19552 66.20976 36155 ft 390 kts 301°
2026-04-11 09:23 36.22605 66.15452 36154 ft 389 kts 301°
2026-04-11 09:24 36.25643 66.09942 36155 ft 389 kts 301°
2026-04-11 09:24 36.28690 66.04396 36154 ft 390 kts 301°
2026-04-11 09:25 36.31721 65.98859 36154 ft 390 kts 300°
2026-04-11 09:25 36.34739 65.93297 36156 ft 391 kts 300°
2026-04-11 09:26 36.37764 65.87718 36154 ft 389 kts 301°
2026-04-11 09:26 36.40778 65.82181 36155 ft 389 kts 300°
2026-04-11 09:27 36.43787 65.76609 36154 ft 389 kts 301°
2026-04-11 09:27 36.46790 65.71034 36155 ft 390 kts 300°
2026-04-11 09:28 36.49787 65.65458 36155 ft 390 kts 300°
2026-04-11 09:28 36.52803 65.59846 36155 ft 390 kts 301°
2026-04-11 09:29 36.55821 65.54280 36154 ft 389 kts 301°
2026-04-11 09:29 36.58820 65.48749 36155 ft 389 kts 301°
2026-04-11 09:30 36.61827 65.43124 36157 ft 390 kts 300°
2026-04-11 09:30 36.64815 65.37551 36154 ft 390 kts 301°
2026-04-11 09:31 36.67849 65.31921 36155 ft 390 kts 300°
2026-04-11 09:31 36.70843 65.26325 36154 ft 389 kts 300°
2026-04-11 09:32 36.73838 65.20741 36156 ft 390 kts 300°
2026-04-11 09:32 36.76830 65.15146 36154 ft 389 kts 300°
2026-04-11 09:33 36.79812 65.09529 36155 ft 389 kts 300°
2026-04-11 09:33 36.82766 65.03934 36155 ft 388 kts 300°
2026-04-11 09:34 36.85740 64.98314 36156 ft 390 kts 300°
2026-04-11 09:34 36.88730 64.92667 36154 ft 390 kts 300°
2026-04-11 09:35 36.91722 64.87048 36155 ft 389 kts 299°
2026-04-11 09:35 36.94645 64.81363 36154 ft 388 kts 295°
2026-04-11 09:36 36.96762 64.75234 36158 ft 386 kts 285°
2026-04-11 09:36 36.98326 64.68822 36153 ft 385 kts 285°
2026-04-11 09:37 36.99949 64.62468 36156 ft 386 kts 285°
2026-04-11 09:37 37.01508 64.56029 36154 ft 387 kts 284°
2026-04-11 09:38 37.03050 64.49584 36154 ft 388 kts 285°
2026-04-11 09:38 37.04628 64.43165 36155 ft 388 kts 285°
2026-04-11 09:39 37.06178 64.36671 36156 ft 391 kts 285°
2026-04-11 09:39 37.07706 64.30181 36155 ft 390 kts 284°
2026-04-11 09:40 37.09255 64.23699 36156 ft 389 kts 285°
2026-04-11 09:40 37.10826 64.17182 36155 ft 392 kts 285°
2026-04-11 09:41 37.12402 64.10614 36154 ft 393 kts 285°
2026-04-11 09:41 37.13936 64.04108 36155 ft 392 kts 285°
2026-04-11 09:42 37.15460 63.97572 36155 ft 392 kts 285°
2026-04-11 09:43 37.17767 63.87739 36155 ft 393 kts 285°
2026-04-11 09:43 37.19286 63.81170 36153 ft 392 kts 284°
2026-04-11 09:44 37.20775 63.74631 36145 ft 392 kts 285°
2026-04-11 09:44 37.22292 63.68053 36138 ft 393 kts 285°
2026-04-11 09:45 37.23797 63.61497 36131 ft 392 kts 285°
2026-04-11 09:45 37.25313 63.54905 36127 ft 392 kts 285°
2026-04-11 09:46 37.26814 63.48398 36129 ft 391 kts 285°
2026-04-11 09:46 37.28349 63.41839 36129 ft 393 kts 285°
2026-04-11 09:47 37.29888 63.35254 36127 ft 392 kts 285°
2026-04-11 09:47 37.31359 63.28693 36128 ft 393 kts 284°
2026-04-11 09:48 37.32832 63.22091 36129 ft 392 kts 284°
2026-04-11 09:48 37.34314 63.15486 36127 ft 393 kts 284°
2026-04-11 09:49 37.35802 63.08931 36127 ft 391 kts 285°
2026-04-11 09:49 37.37313 63.02362 36129 ft 393 kts 285°
2026-04-11 09:50 37.38813 62.95758 36127 ft 396 kts 284°
2026-04-11 09:50 37.40305 62.89128 36128 ft 395 kts 284°
2026-04-11 09:51 37.41793 62.82489 36128 ft 395 kts 284°
2026-04-11 09:51 37.43261 62.75827 36129 ft 396 kts 284°
2026-04-11 09:52 37.44724 62.69138 36127 ft 395 kts 284°
2026-04-11 09:52 37.46175 62.62523 36128 ft 394 kts 285°
2026-04-11 09:53 37.47639 62.55902 36127 ft 396 kts 284°
2026-04-11 09:53 37.49120 62.49231 36128 ft 395 kts 285°
2026-04-11 09:54 37.50593 62.42586 36129 ft 394 kts 285°
2026-04-11 09:54 37.52049 62.35943 36127 ft 395 kts 284°
2026-04-11 09:55 37.53489 62.29271 36127 ft 395 kts 284°
2026-04-11 09:55 37.54940 62.22646 36128 ft 394 kts 284°
2026-04-11 09:56 37.56409 62.15973 36128 ft 396 kts 284°
2026-04-11 09:56 37.57843 62.09348 36128 ft 394 kts 284°
2026-04-11 09:57 37.59272 62.02669 36128 ft 395 kts 284°
2026-04-11 09:57 37.60704 61.96006 36128 ft 395 kts 284°
2026-04-11 09:58 37.62104 61.89309 36126 ft 394 kts 281°
2026-04-11 09:58 37.62820 61.82495 36128 ft 395 kts 276°
2026-04-11 09:59 37.63504 61.75652 36127 ft 394 kts 277°
2026-04-11 09:59 37.64214 61.68811 36128 ft 394 kts 277°
2026-04-11 10:00 37.64896 61.61972 36127 ft 395 kts 277°
2026-04-11 10:00 37.65565 61.55109 36128 ft 394 kts 277°
2026-04-11 10:01 37.66240 61.48254 36128 ft 394 kts 277°
2026-04-11 10:01 37.66904 61.41440 36129 ft 394 kts 277°
2026-04-11 10:02 37.67565 61.34557 36128 ft 396 kts 276°
2026-04-11 10:02 37.68228 61.27693 36128 ft 394 kts 276°
2026-04-11 10:03 37.68843 61.20818 36128 ft 393 kts 276°
2026-04-11 10:03 37.69461 61.13996 36128 ft 395 kts 276°
2026-04-11 10:04 37.70131 61.07123 36128 ft 397 kts 276°
2026-04-11 10:04 37.70783 61.00183 36128 ft 397 kts 276°
2026-04-11 10:05 37.71429 60.93286 36129 ft 401 kts 277°
2026-04-11 10:05 37.72068 60.86278 36127 ft 400 kts 277°
2026-04-11 10:06 37.72711 60.79331 36128 ft 399 kts 277°
2026-04-11 10:06 37.73342 60.72437 36128 ft 398 kts 277°
2026-04-11 10:07 37.73965 60.65479 36128 ft 399 kts 276°
2026-04-11 10:07 37.74576 60.58521 36128 ft 398 kts 277°
2026-04-11 10:08 37.75211 60.51612 36127 ft 399 kts 278°
2026-04-11 10:08 37.76072 60.44678 35904 ft 396 kts 279°
2026-04-11 10:08 37.76507 60.41286 35489 ft 389 kts 279°
2026-04-11 10:09 37.76914 60.37947 35042 ft 383 kts 279°
2026-04-11 10:09 37.77303 60.34656 34581 ft 378 kts 278°
2026-04-11 10:09 37.77689 60.31414 34123 ft 373 kts 278°
2026-04-11 10:09 37.78081 60.28173 33664 ft 371 kts 278°
2026-04-11 10:10 37.78482 60.24951 33210 ft 375 kts 278°
2026-04-11 10:10 37.78891 60.21726 32737 ft 372 kts 278°
2026-04-11 10:10 37.79294 60.18514 32265 ft 368 kts 278°
2026-04-11 10:10 37.79676 60.15340 31797 ft 364 kts 278°
2026-04-11 10:11 37.80043 60.12218 31334 ft 360 kts 278°
2026-04-11 10:11 37.80411 60.09098 30875 ft 359 kts 278°
2026-04-11 10:11 37.80782 60.05964 30411 ft 363 kts 278°
2026-04-11 10:11 37.81159 60.02804 29933 ft 360 kts 278°
2026-04-11 10:12 37.81528 59.99735 29473 ft 356 kts 278°
2026-04-11 10:12 37.81894 59.96664 29022 ft 352 kts 278°
2026-04-11 10:12 37.82257 59.93608 28576 ft 348 kts 278°
2026-04-11 10:12 37.82614 59.90627 28146 ft 348 kts 278°
2026-04-11 10:13 37.82979 59.87579 27702 ft 351 kts 278°
2026-04-11 10:13 37.83342 59.84538 27249 ft 347 kts 278°
2026-04-11 10:13 37.83699 59.81544 26812 ft 343 kts 278°
2026-04-11 10:13 37.84048 59.78622 26384 ft 339 kts 278°
2026-04-11 10:14 37.84401 59.75677 25954 ft 337 kts 278°
2026-04-11 10:14 37.84750 59.72736 25528 ft 342 kts 278°
2026-04-11 10:14 37.85099 59.69783 25087 ft 339 kts 277°
2026-04-11 10:14 37.85445 59.66839 24653 ft 335 kts 277°
2026-04-11 10:15 37.85779 59.63988 24233 ft 331 kts 277°
2026-04-11 10:15 37.86113 59.61134 23813 ft 327 kts 277°
2026-04-11 10:15 37.86449 59.58244 23392 ft 332 kts 277°
2026-04-11 10:15 37.86781 59.55389 22963 ft 330 kts 277°
2026-04-11 10:16 37.87112 59.52537 22519 ft 327 kts 277°
2026-04-11 10:16 37.87443 59.49684 22094 ft 323 kts 277°
2026-04-11 10:16 37.87764 59.46898 21681 ft 320 kts 277°
2026-04-11 10:16 37.88085 59.44111 21273 ft 321 kts 277°
2026-04-11 10:17 37.88405 59.41331 20858 ft 323 kts 277°
2026-04-11 10:17 37.88727 59.38524 20432 ft 320 kts 277°
2026-04-11 10:17 37.89050 59.35749 20026 ft 316 kts 278°
2026-04-11 10:17 37.89521 59.33075 19627 ft 313 kts 284°
2026-04-11 10:18 37.90139 59.30427 19224 ft 315 kts 284°
2026-04-11 10:18 37.90742 59.27731 18805 ft 317 kts 283°
2026-04-11 10:18 37.91322 59.25077 18397 ft 314 kts 284°
2026-04-11 10:18 37.91901 59.22454 17995 ft 310 kts 284°
2026-04-11 10:19 37.92479 59.19841 17595 ft 307 kts 284°
2026-04-11 10:19 37.93054 59.17236 17195 ft 304 kts 284°
2026-04-11 10:19 37.93620 59.14663 16807 ft 309 kts 284°
2026-04-11 10:19 37.94197 59.12042 16396 ft 308 kts 284°
2026-04-11 10:20 37.94770 59.09438 15995 ft 305 kts 284°
2026-04-11 10:20 37.95333 59.06874 15600 ft 302 kts 284°
2026-04-11 10:20 37.95892 59.04325 15207 ft 299 kts 284°
2026-04-11 10:20 37.96441 59.01821 14821 ft 296 kts 284°
2026-04-11 10:21 37.96994 58.99291 14436 ft 302 kts 284°
2026-04-11 10:21 37.97551 58.96743 14035 ft 300 kts 284°
2026-04-11 10:21 37.98103 58.94218 13644 ft 297 kts 284°
2026-04-11 10:21 37.98654 58.91693 13253 ft 294 kts 284°
2026-04-11 10:22 37.99190 58.89233 12872 ft 291 kts 284°
2026-04-11 10:22 37.99726 58.86772 12490 ft 289 kts 284°
2026-04-11 10:22 38.00258 58.84320 12116 ft 293 kts 284°
2026-04-11 10:22 38.00802 58.81816 11720 ft 292 kts 283°
2026-04-11 10:23 38.01337 58.79351 11336 ft 290 kts 283°
2026-04-11 10:23 38.01869 58.76897 10954 ft 287 kts 283°
2026-04-11 10:23 38.02392 58.74482 10578 ft 285 kts 283°
2026-04-11 10:23 38.02912 58.72075 10258 ft 284 kts 283°
2026-04-11 10:24 38.03427 58.69694 10113 ft 273 kts 283°
2026-04-11 10:24 38.03924 58.67394 9858 ft 268 kts 283°
2026-04-11 10:24 38.04409 58.65140 9532 ft 265 kts 283°
2026-04-11 10:24 38.04896 58.62877 9211 ft 263 kts 283°
2026-04-11 10:25 38.05372 58.60666 8898 ft 261 kts 283°
2026-04-11 10:25 38.05850 58.58441 8583 ft 259 kts 283°
2026-04-11 10:25 38.06325 58.56224 8275 ft 265 kts 283°
2026-04-11 10:25 38.06804 58.53994 7960 ft 260 kts 283°
2026-04-11 10:26 38.07275 58.51797 7637 ft 254 kts 283°
2026-04-11 10:26 38.07731 58.49664 7335 ft 248 kts 283°
2026-04-11 10:26 38.08174 58.47593 7041 ft 242 kts 283°
2026-04-11 10:26 38.08611 58.45551 6752 ft 237 kts 283°
2026-04-11 10:27 38.09029 58.43542 6445 ft 233 kts 281°
2026-04-11 10:27 38.09320 58.41554 6149 ft 228 kts 276°
2026-04-11 10:27 38.09571 58.39588 5875 ft 223 kts 277°
2026-04-11 10:27 38.09830 58.37677 5611 ft 218 kts 277°
2026-04-11 10:28 38.10084 58.35798 5355 ft 217 kts 277°
2026-04-11 10:28 38.10342 58.33901 5094 ft 219 kts 277°
2026-04-11 10:28 38.10601 58.31993 4830 ft 219 kts 277°
2026-04-11 10:28 38.10860 58.30079 4566 ft 218 kts 277°
2026-04-11 10:29 38.11116 58.28196 4307 ft 218 kts 277°
2026-04-11 10:29 38.11375 58.26284 4043 ft 217 kts 277°
2026-04-11 10:29 38.11626 58.24434 3800 ft 208 kts 277°
2026-04-11 10:29 38.11861 58.22701 3659 ft 193 kts 277°
2026-04-11 10:30 38.12056 58.21018 3504 ft 194 kts 269°
2026-04-11 10:30 38.11710 58.19412 3308 ft 186 kts 231°
2026-04-11 10:30 38.10777 58.18322 3151 ft 182 kts 205°
2026-04-11 10:30 38.09598 58.17934 3014 ft 176 kts 174°
2026-04-11 10:31 38.08390 58.18168 2881 ft 177 kts 168°
2026-04-11 10:31 38.07176 58.18407 2694 ft 176 kts 168°
2026-04-11 10:31 38.05984 58.18695 2533 ft 174 kts 158°
2026-04-11 10:31 38.05109 58.19647 2514 ft 169 kts 117°
2026-04-11 10:32 38.04610 58.21019 2475 ft 172 kts 120°
2026-04-11 10:32 38.04018 58.22304 2534 ft 165 kts 120°
2026-04-11 10:32 38.03457 58.23556 2507 ft 154 kts 120°
2026-04-11 10:32 38.02935 58.24725 2329 ft 149 kts 119°
2026-04-11 10:33 38.02434 58.25850 2104 ft 145 kts 119°
2026-04-11 10:33 38.01942 58.26958 1902 ft 145 kts 119°
2026-04-11 10:33 38.01453 58.28071 1704 ft 145 kts 118°
2026-04-11 10:33 38.00968 58.29187 1513 ft 145 kts 119°
2026-04-11 10:34 38.00469 58.30296 1322 ft 145 kts 118°
2026-04-11 10:34 37.99971 58.31417 1119 ft 144 kts 118°
2026-04-11 10:34 37.99480 58.32511 909 ft 143 kts 118°
2026-04-11 10:34 37.98981 58.33602 722 ft 143 kts 118°
2026-04-11 10:35 37.98517 58.34647 700 ft 117 kts 118°
2026-04-11 10:35 37.98230 58.35303 699 ft 60 kts 118°
2026-04-11 10:35 37.98043 58.35716 699 ft 49 kts 119°
2026-04-11 10:35 37.97886 58.36068 699 ft 44 kts 118°
2026-04-11 10:36 37.97741 58.36396 699 ft 41 kts 120°
2026-04-11 10:36 37.97545 58.36570 699 ft 36 kts 201°
2026-04-11 10:36 37.97328 58.36640 699 ft 32 kts 152°
2026-04-11 10:36 37.97120 58.36785 699 ft 35 kts 150°
2026-04-11 10:37 37.96923 58.36924 699 ft 28 kts 150°
2026-04-11 10:37 37.96800 58.37074 699 ft 18 kts 128°
2026-04-11 10:37 37.96735 58.37179 699 ft 12 kts 126°
2026-04-11 10:37 37.96739 58.37238 699 ft 6 kts 40°
2026-04-11 10:38 37.96759 58.37268 699 ft 3 kts 82°
2026-04-11 10:38 37.96749 58.37293 699 ft 3 kts 126°
2026-04-11 10:38 37.96722 58.37335 699 ft 2 kts 127°
2026-04-11 10:39 37.96719 58.37340 699 ft 0 kts 127°